Theta_e
308 309 313 313 314 316 319 322 323 323 323 324 324 324 324 325 325 325 326 326 326 326 325 327 329 330 336 336 338 341 345 347 346 346 346 345 338 338 335 335 334 333 336 336
313 309 311 314 314 315 316 317 318 321 323 322 323 324 325 325 325 325 326 326 327 326 328 329 331 337 337 341 342 343 347 347 346 346 344 342 340 337 335 334 334 335 334 335
313 313 312 314 315 316 316 316 316 317 320 321 321 321 321 323 325 326 327 326 327 326 326 324 335 337 339 341 340 340 343 346 346 344 342 339 337 337 335 336 336 335 334 334
306 309 314 313 314 316 316 317 317 319 319 320 320 321 321 322 324 326 327 326 326 326 326 324 337 337 339 340 339 340 345 344 342 340 339 339 338 335 335 334 334 335 335 335
306 307 309 313 314 315 316 317 317 318 318 318 319 320 321 324 326 326 327 326 326 325 324 324 337 339 340 340 340 342 342 340 340 338 337 337 336 337 335 334 334 335 335 335
307 308 307 307 309 314 314 317 317 316 316 318 318 320 321 321 322 324 325 324 324 322 324 337 338 339 340 341 341 341 340 338 339 339 337 336 335 336 336 336 335 335 334 333
311 310 310 309 308 309 312 313 315 318 318 318 317 321 322 322 323 324 324 324 323 324 332 339 339 338 339 340 342 341 339 341 336 339 337 337 337 336 336 334 334 335 335 332
314 317 316 314 309 308 309 313 315 319 320 318 319 321 320 322 323 323 324 323 323 325 337 338 338 337 338 340 341 340 341 339 337 337 336 335 336 334 334 335 335 335 333 332
316 314 312 311 311 309 308 310 314 315 318 318 319 319 319 319 320 322 323 325 336 336 338 338 337 337 339 339 339 340 340 339 338 336 335 335 335 336 335 334 334 335 335 335
312 314 310 309 311 315 315 311 315 315 318 321 320 320 320 320 323 323 326 327 337 338 337 337 336 337 338 338 339 339 339 338 338 335 333 334 334 333 333 333 333 334 333 333
311 312 313 312 312 316 314 310 311 314 316 320 322 320 320 329 329 325 327 326 338 337 337 337 337 337 338 338 339 340 339 337 336 334 333 334 332 333 332 333 334 335 334 332
312 314 316 313 314 315 315 313 311 314 318 318 320 321 320 324 328 326 327 327 336 336 337 336 337 336 337 337 339 339 337 335 334 332 333 333 334 333 333 333 333 334 334 333
312 313 316 315 314 315 319 321 315 316 317 318 320 321 320 324 327 327 324 329 337 336 336 336 336 336 335 336 337 337 334 334 333 333 333 333 333 334 333 333 333 332 333 332
313 312 314 316 316 316 319 317 319 320 320 319 320 320 320 326 326 327 330 336 336 337 336 336 336 336 335 336 335 335 334 333 332 334 333 334 333 334 333 333 333 333 332 332
313 314 312 311 312 314 317 317 317 318 319 322 319 321 319 327 329 336 334 336 336 337 336 336 336 336 334 334 333 333 333 332 333 333 333 332 332 333 333 333 333 333 332 331
313 313 314 316 316 316 318 316 316 317 318 320 321 321 328 327 334 337 336 336 337 337 336 335 336 335 334 332 331 331 332 331 332 335 333 331 330 333 333 333 332 333 332 332
312 315 318 319 318 316 317 314 315 316 318 321 323 328 327 328 330 334 336 335 336 336 335 336 336 335 333 330 330 330 332 331 333 334 333 332 331 330 333 333 331 332 332 331
311 313 317 322 320 322 316 318 326 328 327 327 326 328 328 331 331 330 331 333 334 335 335 335 335 333 332 330 329 329 331 330 332 334 333 332 330 329 333 333 332 331 331 330
310 314 320 324 323 322 319 323 324 330 332 331 328 325 327 331 330 329 330 331 332 332 333 333 334 335 331 330 329 331 330 330 329 332 334 332 330 332 332 332 333 332 331 331
311 314 317 320 324 328 322 319 321 325 333 331 329 329 329 329 331 330 329 330 330 329 332 334 335 334 329 329 329 330 329 329 329 330 332 332 330 332 332 332 332 330 329 331
317 317 318 320 324 321 317 318 323 333 331 325 328 327 326 329 328 327 328 328 329 330 332 335 335 333 330 329 329 329 329 328 328 330 330 332 331 331 331 332 332 331 330 330
317 320 321 320 323 324 316 318 324 322 321 324 322 322 326 326 326 327 328 329 330 331 331 334 335 334 331 329 329 329 328 328 328 330 330 332 329 329 331 332 332 330 331 330
317 316 318 313 316 318 314 316 318 318 319 319 319 320 322 323 324 326 327 328 329 331 330 333 336 334 331 329 328 329 328 328 327 330 332 331 330 329 329 331 333 331 329 329
315 315 317 317 316 317 315 315 314 314 315 318 317 318 318 320 322 324 326 327 328 329 332 331 336 334 331 330 329 328 329 327 327 329 332 333 332 330 328 332 332 331 329 329
314 314 312 316 314 314 313 313 313 313 315 316 317 316 317 317 319 323 325 325 326 329 332 333 336 336 333 331 330 329 330 327 327 330 334 334 333 331 329 328 332 332 329 329
313 312 314 314 311 313 313 312 313 314 314 315 315 316 316 316 318 322 323 324 325 326 328 331 334 337 335 332 331 330 330 327 329 330 331 334 333 333 331 329 327 328 333 331
Wind_Speed
9 9 21 33 21 15 18 22 18 17 18 16 18 25 26 18 11 16 18 13 10 9 10 15 24 12 15 16 19 23 27 29 31 29 26 23 19 17 16 12 14 15 15 16
9 23 26 15 19 21 23 24 21 14 12 17 21 20 25 21 17 23 22 11 12 8 7 7 6 16 15 17 19 22 27 30 30 29 24 22 19 16 15 19 18 18 18 17
15 16 16 20 20 21 26 26 18 21 12 19 11 12 19 16 15 12 12 11 7 10 10 10 8 16 21 21 22 21 22 29 25 26 21 17 17 16 18 15 22 18 18 16
15 17 21 20 24 19 24 13 21 18 12 20 5 14 19 16 20 16 12 9 9 9 9 9 9 10 20 21 20 20 23 26 22 22 21 14 17 12 11 13 15 17 12 9
22 14 8 17 21 19 23 15 18 12 17 16 16 6 27 8 12 9 10 16 14 13 11 10 13 15 23 24 25 24 26 24 20 17 17 15 12 4 10 9 11 11 10 12
18 12 16 18 17 19 17 17 18 15 12 14 17 12 31 18 20 7 9 12 12 11 9 12 16 22 22 26 26 25 23 21 16 15 17 12 10 8 13 12 10 9 8 9
13 16 17 18 19 18 13 13 8 8 11 17 12 10 22 5 14 20 15 16 11 10 11 18 18 15 19 23 27 24 23 17 19 13 16 11 9 9 7 3 3 3 4 6
7 7 8 9 18 12 13 13 10 14 11 16 7 15 12 13 18 18 20 15 10 7 15 17 18 15 20 23 26 24 21 20 18 14 12 9 8 5 3 5 4 2 2 5
5 6 14 21 18 15 21 18 13 17 15 6 6 19 23 26 26 19 17 6 8 12 17 17 15 13 22 24 26 26 25 21 18 15 14 11 9 6 5 4 2 2 3 5
1 8 8 18 13 15 14 11 8 9 18 16 8 14 12 16 16 19 9 11 11 16 17 15 13 14 22 25 28 27 25 23 19 18 15 12 10 8 6 5 3 4 5 6
5 6 8 10 3 8 7 17 13 7 11 11 11 12 14 10 8 9 10 10 18 17 18 17 14 18 23 25 27 27 26 23 21 18 15 13 11 7 5 6 5 4 5 8
5 2 6 12 15 17 18 19 16 9 9 11 6 11 7 11 5 9 11 11 19 19 18 16 17 16 20 20 26 27 27 23 23 17 16 13 11 10 8 7 6 5 6 9
3 3 5 8 6 9 5 8 12 8 15 18 15 14 14 10 4 7 8 13 19 19 18 16 16 15 14 18 22 25 27 24 22 20 16 14 13 10 9 7 7 6 8 10
7 2 8 7 14 9 10 20 15 9 10 13 19 11 11 13 9 8 2 20 22 21 20 18 15 15 13 21 21 25 25 26 22 23 21 16 12 11 9 8 7 7 9 11
1 4 10 14 20 13 14 18 20 15 16 9 16 17 15 8 5 4 16 20 21 20 20 19 16 15 12 18 22 26 25 27 23 24 23 16 12 10 10 9 8 9 12 11
2 5 6 15 18 15 11 15 19 19 22 18 22 7 8 7 5 11 15 17 19 20 20 18 17 16 15 18 22 26 27 27 23 26 24 21 15 15 13 11 10 11 13 14
9 3 4 5 7 10 6 13 16 15 19 19 18 6 6 7 9 5 11 13 17 19 20 18 18 16 15 21 26 26 28 28 23 25 23 22 18 12 14 13 12 13 14 14
11 12 4 5 6 5 1 13 16 15 16 17 16 18 11 6 14 17 13 8 13 15 18 16 15 12 23 27 31 27 30 27 22 27 23 24 18 14 18 15 16 14 16 14
14 6 3 3 3 3 7 4 10 10 9 21 8 11 4 12 17 14 9 6 6 8 17 14 21 22 26 28 34 29 30 27 21 24 22 26 21 21 20 16 16 15 15 16
12 7 3 3 4 2 2 18 21 15 6 16 15 16 12 4 7 3 6 4 7 9 8 16 25 28 27 29 35 30 28 27 24 20 26 28 24 25 22 18 17 16 15 17
1 3 8 6 3 5 14 24 17 6 2 17 10 10 8 6 2 3 6 6 6 5 7 24 29 26 29 33 35 26 28 25 26 22 22 25 27 28 22 19 16 18 18 19
2 3 4 4 1 3 13 16 6 8 13 7 14 14 8 7 8 8 8 7 8 8 9 11 19 22 28 35 32 25 24 28 25 26 24 27 31 28 23 22 17 20 20 20
2 2 2 1 2 4 11 13 11 10 13 13 14 15 15 13 8 9 7 9 7 8 5 9 14 23 26 32 31 24 31 28 24 29 30 32 31 28 24 23 23 21 20 22
8 6 3 1 3 4 2 7 14 17 18 12 12 12 14 14 13 11 12 11 11 6 2 3 6 14 19 29 31 33 31 29 24 31 33 32 32 29 25 24 24 23 23 22
3 5 9 4 6 10 8 14 10 14 13 16 11 9 13 13 14 8 11 12 12 12 14 6 11 12 20 28 31 32 33 30 25 32 31 30 30 29 27 25 24 25 24 29
3 2 3 3 9 6 14 16 16 11 11 15 14 15 14 8 12 6 10 11 11 14 19 16 5 26 23 28 30 33 34 32 30 28 28 27 28 27 27 25 19 19 25 24
Wind_Direction
236 217 222 219 218 228 246 239 252 244 244 263 256 258 268 268 262 268 263 260 222 221 239 257 258 237 148 153 158 167 176 178 172 166 164 172 169 164 167 182 207 216 206 206
235 228 228 237 226 231 244 260 262 263 246 247 247 257 256 253 253 250 256 248 238 235 211 211 205 162 155 144 143 153 163 167 169 164 162 171 179 181 204 219 214 213 205 214
229 244 224 231 233 229 232 238 248 256 285 279 286 290 285 283 273 262 252 247 221 220 222 235 153 155 149 148 146 149 152 158 155 159 162 165 175 196 207 213 220 203 211 223
260 254 239 245 229 232 242 234 238 253 241 254 209 272 264 266 264 266 263 263 252 240 223 224 148 155 151 146 145 148 151 152 149 159 163 163 162 143 170 206 203 205 201 223
241 273 261 247 249 232 253 225 257 257 246 261 254 269 266 215 254 248 256 253 255 257 232 230 160 144 142 144 141 143 148 152 152 162 164 153 143 146 166 156 153 168 200 218
250 244 257 264 273 252 263 243 244 257 261 263 249 222 267 242 250 251 243 250 242 237 224 128 127 129 132 137 138 143 150 153 155 140 162 163 177 101 126 136 141 168 213 235
248 246 251 252 269 275 260 233 248 236 231 239 222 243 235 251 235 239 242 248 251 240 138 136 138 136 135 133 141 147 147 147 157 127 150 137 128 118 128 143 144 181 242 246
257 265 263 254 230 253 255 235 220 214 217 244 236 241 238 241 261 240 247 244 244 233 136 144 140 139 136 136 143 146 147 145 154 141 134 143 148 171 186 167 145 184 214 218
10 282 311 302 297 229 251 251 246 250 279 225 234 240 262 258 258 256 245 224 118 107 135 135 134 136 135 140 145 152 149 153 158 156 151 156 166 153 152 166 208 175 169 184
87 285 278 287 286 278 235 259 249 224 235 254 242 250 256 263 257 236 215 156 131 132 129 128 135 134 137 144 150 155 156 162 163 154 157 171 172 182 161 151 148 148 160 167
210 196 276 300 256 270 267 238 240 279 220 232 255 257 263 274 202 173 182 160 148 146 141 140 137 135 142 144 150 158 161 163 154 157 174 179 170 162 162 143 158 157 155 160
336 309 281 263 281 279 285 266 232 228 250 232 243 246 248 270 172 152 188 148 149 145 141 140 138 138 141 139 151 157 161 160 155 165 176 168 165 157 143 148 154 149 154 161
346 272 303 310 235 251 283 327 252 248 238 219 239 245 263 309 259 216 180 146 142 140 138 138 139 141 144 142 151 158 160 160 166 174 159 152 147 147 142 145 148 145 151 167
298 249 255 275 295 325 294 310 321 347 248 233 226 251 254 243 232 228 207 146 143 145 144 142 143 146 145 146 152 159 164 166 172 170 151 157 139 149 156 149 145 138 146 156
197 247 254 272 277 273 270 285 299 307 283 275 234 217 230 282 237 154 143 141 138 142 144 147 145 149 145 150 154 166 170 172 170 163 158 143 142 151 157 153 144 138 134 140
174 262 292 278 264 252 232 266 283 285 282 282 258 234 236 22 51 101 121 134 142 146 145 150 145 153 152 156 157 169 167 171 166 162 156 149 151 166 161 157 149 138 129 136
261 262 295 295 137 120 301 259 263 271 265 263 265 163 315 113 31 82 142 141 151 150 151 153 153 157 154 154 158 167 166 167 154 163 159 159 149 169 157 148 143 141 136 136
246 250 263 267 182 217 355 331 329 304 276 302 272 149 201 94 75 51 22 54 149 147 151 151 152 149 152 155 162 164 160 163 159 170 165 167 166 157 157 152 151 150 144 143
219 214 257 261 241 325 329 41 345 339 6 358 89 101 46 146 68 35 1 32 17 145 156 155 151 149 151 152 160 158 159 164 180 175 174 173 163 158 150 153 155 153 152 145
229 156 198 311 314 180 62 323 328 313 50 352 13 57 8 193 63 312 321 352 13 39 164 148 148 148 150 154 161 157 161 167 185 193 164 177 163 160 151 151 156 155 145 141
310 144 237 260 281 331 343 330 314 109 331 323 25 30 24 38 137 266 351 17 35 38 42 153 151 154 157 157 162 157 165 172 189 181 174 168 157 155 150 148 153 157 149 148
44 279 342 319 96 122 347 339 46 317 309 286 36 6 13 7 8 12 5 10 30 21 23 147 146 151 155 159 161 159 168 180 190 173 171 157 153 150 149 148 149 152 155 155
15 340 304 65 290 351 23 360 329 306 322 17 22 4 5 356 357 3 359 5 35 30 351 48 160 150 157 161 166 162 177 181 187 169 154 153 155 157 153 148 149 153 162 157
336 5 8 168 357 131 100 359 349 343 346 358 6 1 355 352 349 1 353 4 12 10 311 324 162 160 160 163 169 175 178 181 184 167 157 155 158 160 159 160 159 156 160 160
348 335 323 301 10 338 4 353 329 318 340 4 350 355 338 348 343 352 355 357 0 352 349 348 174 183 174 166 170 176 180 182 178 166 157 158 160 162 168 171 174 173 174 174
2 11 331 300 317 318 319 324 317 344 350 353 349 340 331 338 330 343 357 350 352 339 332 316 326 173 181 171 172 179 182 185 172 158 163 155 163 167 173 177 189 197 193 193